[[{"header":{"parameterUnit":"m.s-1","parameterCategory":1,"la1":30.2991,"la2":30.254,"lo1":-89.0895,"lo2":-89.0444,"dy":0.0017,"dx":0.0017,"nx":28,"ny":28,"refTime":"2025-04-03T03:00:00:Z","depth":0,"parameterNumber":2,"parameterNumberName":"U-component_of_WINDS"},"data":[0,0,0,0,0,0,0,0,0,0,0,0,0,0,0,0,0,0,0,0,0,0,0,0,0,0,0,0,0,0,0,0,0,0,0,0,0,0,0,0,0,0,0,0,0,0,0,0,0,0,0,0,0,0,0,0,0,0,-4.2099,-4.21,0,-4.2227,-4.2229,-4.223,-4.2254,-4.2253,-4.2252,-4.2251,-4.2383,-4.2387,-4.2392,0,0,0,0,0,0,0,0,0,0,0,0,0,-4.1875,-4.1879,-4.2099,-4.21,-4.2102,-4.2227,-4.2229,-4.2231,-4.2255,-4.2253,-4.2252,-4.2251,-4.2382,-4.2387,-4.2392,0,0,0,0,0,0,0,0,0,0,0,0,0,-4.1985,-4.1881,-4.2099,-4.2129,-4.2133,-4.2227,-4.2229,-4.2231,-4.2255,-4.2253,-4.2252,-4.225,-4.238,-4.2386,-4.2393,-4.2465,0,0,-4.2413,-4.2416,0,0,0,0,0,0,0,0,-4.1979,-4.1993,-4.2123,-4.2127,-4.2132,-4.2223,-4.2198,-4.231,-4.2255,-4.2209,-4.2251,-4.2249,-4.2331,-4.2342,-4.2369,-4.2472,-4.2477,-4.2414,-4.2418,-4.2421,-4.2423,0,0,0,0,0,0,0,-4.1971,-4.1988,-4.215,-4.2125,-4.213,-4.2137,-4.2151,-4.222,-4.2277,-4.2213,-4.2215,-4.2229,-4.2333,-4.2363,-4.2373,-4.2479,-4.2414,-4.242,-4.2424,-4.2427,-4.2648,-4.265,0,0,0,0,0,0,-4.1958,-4.1981,-4.2146,-4.2154,-4.205,-4.2142,-4.2157,-4.2195,-4.2276,-4.2287,-4.2231,-4.223,-4.2352,-4.2365,-4.2377,-4.2467,-4.2421,-4.2427,-4.2431,-4.2646,-4.2648,-4.265,0,0,0,0,0,0,-4.1953,-4.1972,-4.214,-4.2068,-4.209,-4.2147,-4.219,-4.2199,-4.2228,-4.229,-4.23,-4.225,-4.2351,-4.2368,-4.2443,-4.2472,-4.243,-4.2436,-4.2644,-4.2647,-4.2649,-4.2647,0,0,0,0,0,0,-4.1947,-4.1971,-4.1998,-4.2069,-4.2094,-4.2204,-4.2192,-4.2202,-4.224,-4.224,-4.2311,-4.2321,-4.2351,-4.2433,-4.245,-4.248,-4.2442,-4.2641,-4.2645,-4.2648,-4.2645,-4.265,-4.2653,0,0,0,0,0,-4.1939,-4.1993,-4.1999,-4.2019,-4.2129,-4.2205,-4.222,-4.2253,-4.2242,-4.227,-4.231,-4.2319,-4.2467,-4.2441,-4.246,-4.2493,-4.264,-4.2644,-4.2648,-4.2643,-4.2649,-4.2653,0,0,0,0,0,0,-4.1924,-4.2002,-4.2011,-4.2089,-4.214,-4.2209,-4.2246,-4.2258,-4.2314,-4.2312,-4.2352,-4.2367,-4.2441,-4.2475,-4.2444,-4.2567,-4.2552,-4.2561,-4.2542,-4.2548,-4.2552,-4.2542,-4.2447,0,0,0,0,0,-4.193,-4.1985,-4.205,-4.2113,-4.2139,-4.2188,-4.2222,-4.2244,-4.2299,-4.232,-4.2366,-4.2419,-4.2477,-4.2515,-4.2572,-4.2651,-4.2666,-4.2683,-4.2687,-4.269,-4.2696,-4.2741,-4.2749,-4.2664,-4.2664,-4.2664,0,0,-4.1942,-4.1992,-4.2024,-4.2112,-4.2154,-4.221,-4.2206,-4.2266,-4.2308,-4.233,-4.2403,-4.2439,-4.2501,-4.2578,-4.2614,-4.2609,-4.2724,-4.2696,-4.2698,-4.2702,-4.2746,-4.2754,-4.2761,-4.2667,-4.2666,-4.2666,0,0,-4.1994,-4.2037,-4.2094,-4.2137,-4.2201,-4.2234,-4.2247,-4.2315,-4.2339,-4.2414,-4.2432,-4.2483,-4.2583,-4.2626,-4.2661,-4.2731,-4.2741,-4.2749,-4.277,-4.2813,-4.282,-4.2826,-4.285,-4.2858,-4.2755,-4.2755,-4.2755,0,-4.2001,-4.2086,-4.2122,-4.2181,-4.2219,-4.2242,-4.23,-4.234,-4.2419,-4.2445,-4.2438,-4.2564,-4.2607,-4.2695,-4.2712,-4.274,-4.2757,-4.274,-4.2816,-4.2822,-4.2829,-4.2852,-4.2861,-4.2755,-4.2755,-4.2755,-4.2755,0,-4.2092,-4.2151,-4.2189,-4.2265,-4.2308,-4.2366,-4.2411,-4.245,-4.2468,-4.2502,-4.2578,-4.2632,-4.27,-4.2723,-4.2741,-4.2814,-4.2808,-4.2808,-4.2793,-4.2836,-4.2859,-4.2868,-4.2756,-4.2756,-4.2756,-4.2756,0,0,-4.2136,-4.2232,-4.2245,-4.228,-4.2353,-4.24,-4.246,-4.2527,-4.2559,-4.2614,-4.2665,-4.2749,-4.275,-4.279,-4.2814,-4.2852,-4.2903,-4.2847,-4.2849,-4.2855,-4.2985,-4.2984,-4.2993,-4.2911,-4.2913,-4.2914,-4.298,0,-4.2195,-4.2301,-4.2336,-4.2425,-4.2479,-4.2503,-4.2555,-4.2606,-4.264,-4.2692,-4.2729,-4.2788,-4.2785,-4.2809,-4.2847,-4.2888,-4.2929,-4.2884,-4.2958,-4.296,-4.294,-4.3005,-4.3004,-4.3063,-4.2989,-4.299,-4.2992,0,-4.2278,-4.2334,-4.2428,-4.2495,-4.2519,-4.2565,-4.2629,-4.2679,-4.2737,-4.2759,-4.2804,-4.2826,-4.289,-4.2873,-4.2961,-4.293,-4.2963,-4.2988,-4.2991,-4.2998,-4.2977,-4.3013,-4.3083,-4.3091,-4.3006,-4.3005,-4.3004,0,-4.2299,-4.2398,-4.2467,-4.2497,-4.2577,-4.2608,-4.2643,-4.2701,-4.2739,-4.2796,-4.2821,-4.2884,-4.2919,-4.2968,-4.3006,-4.299,-4.3091,-4.3077,-4.3111,-4.311,-4.3129,-4.3127,-4.3204,-4.3153,-4.3152,-4.3152,-4.3152,0,-4.2361,-4.2417,-4.2478,-4.252,-4.2584,-4.2624,-4.2687,-4.2723,-4.2774,-4.2824,-4.2849,-4.2896,-4.2944,-4.2997,-4.3028,-4.3096,-4.3112,-4.3132,-4.3139,-4.3129,-4.3126,-4.3149,-4.3146,-4.3155,-4.3154,-4.3154,-4.3153,0,-4.2394,-4.2437,-4.2514,-4.2584,-4.2603,-4.2647,-4.2707,-4.2749,-4.2785,-4.2848,-4.2865,-4.292,-4.2984,-4.3028,-4.311,-4.3131,-4.3205,-4.3212,-4.3184,-4.3188,-4.3218,-4.3214,-4.3311,-4.3326,-4.3266,-4.3266,-4.3267,0,-4.243,-4.2474,-4.2549,-4.2584,-4.2619,-4.2675,-4.2715,-4.2756,-4.2796,-4.2867,-4.2901,-4.2966,-4.3021,-4.3122,-4.317,-4.3233,-4.3241,-4.3271,-4.3251,-4.3239,-4.3241,-4.3237,-4.3241,-4.3274,-4.3274,-4.3275,-4.3275,0,-4.2489,-4.2508,-4.2563,-4.2626,-4.2672,-4.2724,-4.2776,-4.2804,-4.2855,-4.2899,-4.2964,-4.3007,-4.3091,-4.3156,-4.3224,-4.326,-4.3276,-4.3281,-4.3292,-4.3281,-4.3263,-4.3272,-4.3192,-4.3278,-4.3278,-4.3278,-4.3277,-4.3277,-4.2524,-4.2564,-4.2623,-4.2684,-4.2727,-4.2776,-4.2819,-4.286,-4.2915,-4.2986,-4.3008,-4.3076,-4.3135,-4.3228,-4.3266,-4.332,-4.3317,-4.3333,-4.3337,-4.334,-4.3339,-4.3256,-4.3333,-4.3333,-4.3333,-4.3333,-4.3333,0,-4.2583,-4.2622,-4.2678,-4.275,-4.2798,-4.2809,-4.2868,-4.2907,-4.2967,-4.302,-4.3074,-4.3149,-4.3213,-4.3266,-4.3332,-4.3365,-4.3374,-4.3381,-4.3378,-4.3386,-4.3338,-4.3322,-4.3373,-4.3373,-4.3373,-4.3373,-4.3373,-4.3373,-4.2619,-4.2688,-4.2714,-4.2805,-4.2844,-4.2911,-4.2943,-4.2988,-4.3031,-4.3114,-4.3167,-4.3201,-4.3255,-4.3325,-4.3383,-4.3398,-4.342,-4.3425,-4.3441,-4.3394,-4.339,-4.3385,-4.337,-4.343,-4.343,-4.3484,-4.3485,-4.3485]},{"header":{"parameterUnit":"m.s-1","parameterCategory":1,"la1":30.2991,"la2":30.254,"lo1":-89.0895,"lo2":-89.0444,"dy":0.0017,"dx":0.0017,"nx":28,"ny":28,"refTime":"2025-04-03T03:00:00:Z","depth":0,"parameterNumber":3,"parameterNumberName":"V-component_of_WINDS"},"data":[0,0,0,0,0,0,0,0,0,0,0,0,0,0,0,0,0,0,0,0,0,0,0,0,0,0,0,0,0,0,0,0,0,0,0,0,0,0,0,0,0,0,0,0,0,0,0,0,0,0,0,0,0,0,0,0,0,0,5.0513,5.0514,0,5.0674,5.0676,5.0678,5.0681,5.0679,5.0677,5.0676,5.0843,5.0849,5.0855,0,0,0,0,0,0,0,0,0,0,0,0,0,5.0212,5.0217,5.0513,5.0515,5.0517,5.0674,5.0676,5.0678,5.0682,5.0679,5.0677,5.0675,5.0841,5.0848,5.0856,0,0,0,0,0,0,0,0,0,0,0,0,0,5.0355,5.0219,5.0512,5.0537,5.0541,5.0673,5.0676,5.0679,5.0682,5.0679,5.0676,5.0674,5.0838,5.0847,5.0857,5.0975,0,0,5.0886,5.089,0,0,0,0,0,0,0,0,5.0347,5.0366,5.0532,5.0536,5.054,5.0654,5.0631,5.0778,5.0683,5.0629,5.0676,5.0672,5.0783,5.0796,5.0833,5.0983,5.099,5.0886,5.0892,5.0896,5.0899,0,0,0,0,0,0,0,5.0337,5.0359,5.0576,5.0534,5.0539,5.0542,5.0559,5.0659,5.0721,5.0633,5.0634,5.0653,5.0784,5.0824,5.0837,5.0992,5.0886,5.0895,5.09,5.0904,5.1252,5.1255,0,0,0,0,0,0,5.0321,5.0351,5.0571,5.0581,5.0434,5.055,5.0569,5.0621,5.0719,5.0732,5.0655,5.0653,5.0809,5.0826,5.0843,5.0992,5.0896,5.0905,5.091,5.1248,5.1252,5.1256,0,0,0,0,0,0,5.0315,5.0341,5.0565,5.0466,5.0495,5.0558,5.0617,5.0626,5.0665,5.0736,5.0747,5.0684,5.0808,5.083,5.0943,5.0997,5.0909,5.0918,5.1244,5.1249,5.1254,5.1287,0,0,0,0,0,0,5.0306,5.0339,5.0383,5.0467,5.05,5.0661,5.062,5.0631,5.0682,5.0679,5.0766,5.0778,5.0807,5.0929,5.0952,5.1009,5.0925,5.1239,5.1246,5.1253,5.1281,5.1293,5.1302,0,0,0,0,0,5.0296,5.0385,5.0385,5.0412,5.0557,5.0664,5.0683,5.0714,5.0686,5.0732,5.0778,5.0775,5.0987,5.094,5.0967,5.1027,5.1236,5.1244,5.1252,5.1277,5.1291,5.1302,0,0,0,0,0,0,5.0306,5.0397,5.0398,5.0517,5.0583,5.0664,5.0723,5.0727,5.0803,5.0798,5.0834,5.0853,5.0967,5.1008,5.0954,5.1149,5.1108,5.1122,5.1118,5.1132,5.1142,5.1131,5.0933,0,0,0,0,0,5.0322,5.04,5.0476,5.0574,5.0607,5.066,5.0707,5.0726,5.0796,5.0823,5.0877,5.0946,5.1029,5.1082,5.1161,5.1287,5.1308,5.1341,5.1352,5.136,5.1372,5.1446,5.1463,5.1283,5.1283,5.1282,0,0,5.0356,5.0416,5.0463,5.0578,5.0631,5.0713,5.0683,5.077,5.0832,5.0837,5.0948,5.099,5.1069,5.119,5.1246,5.1228,5.1427,5.137,5.1376,5.1384,5.1456,5.1473,5.1488,5.1288,5.1287,5.1286,0,0,5.0461,5.0513,5.0602,5.0656,5.0737,5.0772,5.0794,5.0875,5.0904,5.1016,5.1022,5.1097,5.1237,5.1294,5.1342,5.1472,5.1474,5.1497,5.1553,5.1624,5.1638,5.1651,5.1701,5.1718,5.1508,5.1508,5.1508,0,5.0494,5.0617,5.0647,5.0736,5.0788,5.0796,5.0889,5.094,5.1043,5.1079,5.1057,5.1236,5.1289,5.1426,5.1458,5.1495,5.1523,5.1488,5.1633,5.1647,5.1659,5.1707,5.1725,5.1511,5.151,5.151,5.151,0,5.0655,5.0741,5.0803,5.0903,5.0962,5.1052,5.1098,5.1154,5.1168,5.1206,5.1322,5.1386,5.1481,5.1514,5.1528,5.1654,5.1641,5.1625,5.1586,5.1678,5.1724,5.1743,5.1514,5.1513,5.1513,5.1512,0,0,5.0771,5.0888,5.0911,5.0958,5.1049,5.1117,5.1208,5.1301,5.135,5.1421,5.1501,5.1621,5.1608,5.1662,5.1683,5.1745,5.1849,5.1723,5.1726,5.1747,5.1996,5.2009,5.2029,5.1849,5.1853,5.1856,5.199,0,5.0889,5.1051,5.1082,5.1224,5.1306,5.1316,5.1396,5.1462,5.15,5.1576,5.1619,5.1705,5.168,5.1713,5.1775,5.1823,5.19,5.1813,5.1927,5.1931,5.191,5.2053,5.2066,5.219,5.2008,5.2011,5.2013,0,5.1047,5.1124,5.1274,5.1357,5.1393,5.1464,5.1554,5.1625,5.1701,5.1725,5.1786,5.1801,5.1899,5.1854,5.1991,5.1932,5.198,5.2011,5.2017,5.2031,5.1979,5.2074,5.223,5.225,5.2041,5.2039,5.2037,0,5.1121,5.1261,5.137,5.141,5.1509,5.156,5.1604,5.1676,5.1731,5.1809,5.1846,5.1934,5.1983,5.2052,5.2092,5.2054,5.2228,5.2184,5.2253,5.2252,5.2291,5.2288,5.246,5.2317,5.2316,5.2316,5.2316,0,5.1251,5.1344,5.1406,5.1473,5.1578,5.1614,5.1717,5.176,5.1826,5.1904,5.1917,5.199,5.2035,5.2116,5.2147,5.2258,5.2279,5.2303,5.2311,5.2304,5.2302,5.2338,5.2332,5.2321,5.232,5.2319,5.2318,0,5.1352,5.1397,5.1517,5.1602,5.1625,5.1699,5.1773,5.184,5.1878,5.1977,5.2002,5.2064,5.2159,5.2204,5.2322,5.2343,5.2471,5.2471,5.2446,5.2449,5.2516,5.2511,5.272,5.2751,5.2584,5.2585,5.2587,0,5.1433,5.1505,5.1598,5.1651,5.1696,5.1781,5.1838,5.1876,5.1935,5.2028,5.2085,5.2181,5.226,5.2412,5.2468,5.256,5.2564,5.2631,5.2578,5.257,5.257,5.2567,5.2576,5.2642,5.2643,5.2645,5.2646,0,5.1574,5.1594,5.1674,5.1764,5.1831,5.1903,5.1974,5.2017,5.2067,5.2133,5.2231,5.2292,5.2413,5.251,5.2605,5.2652,5.266,5.2662,5.2683,5.2678,5.2662,5.2676,5.2475,5.2657,5.2656,5.2655,5.2655,5.2654,5.1671,5.1737,5.1813,5.1903,5.1961,5.2028,5.2096,5.2144,5.2226,5.2328,5.2346,5.2451,5.2528,5.2657,5.2708,5.2792,5.2777,5.2806,5.2815,5.2822,5.2828,5.2646,5.2809,5.2809,5.2808,5.2808,5.2808,0,5.1816,5.1866,5.1948,5.2048,5.212,5.2118,5.2198,5.2259,5.2351,5.2422,5.25,5.2614,5.2709,5.2773,5.2869,5.2924,5.293,5.2949,5.2947,5.2958,5.2834,5.2808,5.2942,5.2942,5.2942,5.2942,5.2942,5.2942,5.19,5.2012,5.2041,5.2183,5.2233,5.2336,5.2382,5.2445,5.2502,5.2629,5.2707,5.2748,5.2818,5.292,5.3007,5.3024,5.306,5.308,5.3097,5.298,5.2966,5.2953,5.2929,5.3086,5.3087,5.3214,5.3215,5.3216]}]]